Location: Mentone
(34.5413°N, 85.5351°W)
Time: 20:06:37
(UTC-06:00)

S-56A Canister/Altair - Visible Passes

Search period start: 22 February 2018 00:00
Search period end: 04 March 2018 00:00
Orbit: 633 x 2500 km, 38.9° (Epoch: 21 February)

Date Brightness Start Highest point End Pass type
(mag) Time Alt. Az. Time Alt. Az. Time Alt. Az.
22 Feb 10.9 01:08:25 30° ENE 01:08:25 30° ENE 01:14:32 10° E visible
22 Feb 9.6 03:05:51 73° NW 03:07:34 82° NNE 03:22:56 10° ESE visible
22 Feb 10.1 05:03:17 18° WNW 05:14:32 62° SSW 05:29:05 10° SE visible
23 Feb 11.3 00:37:39 19° ENE 00:37:39 19° ENE 00:40:45 10° ENE visible
23 Feb 9.7 02:35:05 76° NE 02:35:05 76° NE 02:49:19 10° E visible
23 Feb 9.9 04:32:31 29° WNW 04:41:05 67° SSW 04:56:00 10° SE visible
24 Feb 11.6 00:06:56 10° ENE 00:06:56 10° ENE 00:06:58 10° ENE visible
24 Feb 10.0 02:04:23 56° E 02:04:23 56° E 02:15:35 10° E visible
24 Feb 9.8 04:01:50 43° W 04:07:40 72° SSW 04:22:46 10° SE visible
25 Feb 10.5 01:33:46 38° E 01:33:46 38° E 01:41:49 10° E visible
25 Feb 9.6 03:31:13 61° W 03:34:14 77° SSW 03:49:27 10° SE visible
25 Feb 10.5 05:28:40 12° W 05:40:17 37° SW 05:53:13 10° SSE visible
26 Feb 11.0 01:03:13 25° E 01:03:13 25° E 01:08:01 10° E visible
26 Feb 9.5 03:00:40 81° SW 03:00:50 81° SSW 03:16:00 10° ESE visible
26 Feb 10.3 04:58:08 20° W 05:07:00 41° SW 05:20:28 10° SSE visible
26 Feb 9.9 20:05:56 10° SSW 20:06:40 14° SSW 20:06:40 14° SSW visible
27 Feb 11.4 00:32:45 14° E 00:32:45 14° E 00:34:11 10° E visible
27 Feb 9.8 02:30:13 65° SE 02:30:13 65° SE 02:42:27 10° ESE visible
27 Feb 10.2 04:27:41 31° W 04:33:42 45° SW 04:47:35 10° SSE visible
27 Feb 9.3 19:34:07 10° SSW 19:36:26 22° S 19:36:26 22° S visible
28 Feb 10.3 01:59:51 44° ESE 01:59:51 44° ESE 02:08:50 10° ESE visible
28 Feb 9.9 03:57:19 43° WSW 04:00:25 49° SW 04:14:34 10° SSE visible
28 Feb 9.0 19:02:27 10° S 19:06:11 22° SE 19:06:11 22° SE visible
28 Feb 10.5 21:03:35 10° WSW 21:03:40 10° WSW 21:03:40 10° WSW visible
01 Mar 10.8 01:29:33 28° ESE 01:29:33 28° ESE 01:35:08 10° ESE visible
01 Mar 9.8 03:27:01 53° SW 03:27:08 53° SW 03:41:25 10° SE visible
01 Mar 10.9 05:24:30 11° W 05:32:38 20° SW 05:42:04 10° S visible
01 Mar 9.2 18:30:58 10° S 18:34:08 16° SE 18:35:54 15° ESE visible
01 Mar 9.5 20:31:24 10° WSW 20:33:23 25° SW 20:33:23 25° SW visible
02 Mar 11.3 00:59:19 16° ESE 00:59:19 16° ESE 01:01:24 10° ESE visible
02 Mar 10.0 02:56:48 50° S 02:56:48 50° S 03:08:09 10° SE visible
02 Mar 10.6 04:54:17 18° WSW 04:59:29 23° SW 05:09:50 10° S visible
02 Mar 9.4 17:59:59 10° SSE 18:01:51 12° SE 18:03:52 10° ESE visible
02 Mar 8.3 19:59:15 10° SW 20:03:03 49° SSW 20:03:03 49° SSW visible
03 Mar 10.4 02:26:38 38° SSE 02:26:38 38° SSE 02:34:47 10° SE visible
03 Mar 10.5 04:24:07 25° SW 04:26:19 26° SW 04:37:22 10° S visible
03 Mar 7.8 19:27:09 10° SW 19:32:03 56° SSE 19:32:40 53° SE visible
